[[{"header":{"parameterUnit":"m.s-1","parameterCategory":1,"la1":30.2991,"la2":30.254,"lo1":-89.0895,"lo2":-89.0444,"dy":0.0017,"dx":0.0017,"nx":28,"ny":28,"refTime":"2024-05-25T09:00:00:Z","depth":0,"parameterNumber":2,"parameterNumberName":"U-component_of_WINDS"},"data":[0,0,0,0,0,0,0,0,0,0,0,0,0,0,0,0,0,0,0,0,0,0,0,0,0,0,0,0,0,0,0,0,0,0,0,0,0,0,0,0,0,0,0,0,0,0,0,0,0,0,0,0,0,0,0,0,0,0,-0.4849,-0.4849,0,-0.4805,-0.4805,-0.4804,-0.4783,-0.4783,-0.4783,-0.4783,-0.4738,-0.4737,-0.4735,0,0,0,0,0,0,0,0,0,0,0,0,0,-0.4915,-0.4914,-0.4849,-0.4848,-0.4848,-0.4805,-0.4805,-0.4804,-0.4783,-0.4783,-0.4783,-0.4783,-0.4738,-0.4737,-0.4735,0,0,0,0,0,0,0,0,0,0,0,0,0,-0.488,-0.4913,-0.4849,-0.4832,-0.483,-0.4805,-0.4805,-0.4804,-0.4783,-0.4783,-0.4783,-0.4783,-0.4739,-0.4737,-0.4735,-0.4723,0,0,-0.473,-0.4729,0,0,0,0,0,0,0,0,-0.4882,-0.4878,-0.4835,-0.4834,-0.4831,-0.48,-0.4811,-0.4777,-0.4783,-0.4801,-0.4783,-0.4783,-0.4758,-0.4755,-0.4747,-0.4721,-0.4719,-0.4729,-0.4728,-0.4727,-0.4727,0,0,0,0,0,0,0,-0.4884,-0.4879,-0.4832,-0.4835,-0.4832,-0.4827,-0.4822,-0.4805,-0.478,-0.48,-0.4798,-0.4793,-0.4757,-0.4748,-0.4745,-0.4719,-0.4729,-0.4728,-0.4727,-0.4726,-0.4681,-0.4681,0,0,0,0,0,0,-0.489,-0.4882,-0.4833,-0.483,-0.4857,-0.4826,-0.482,-0.481,-0.478,-0.4776,-0.4793,-0.4792,-0.4752,-0.4748,-0.4744,-0.4728,-0.4727,-0.4726,-0.4725,-0.4682,-0.4681,-0.4681,0,0,0,0,0,0,-0.4891,-0.4885,-0.4835,-0.4855,-0.4849,-0.4825,-0.4813,-0.4809,-0.48,-0.4775,-0.4771,-0.4789,-0.4751,-0.4746,-0.4729,-0.4726,-0.4725,-0.4723,-0.4682,-0.4681,-0.4681,-0.4697,0,0,0,0,0,0,-0.4893,-0.4886,-0.4881,-0.4856,-0.4848,-0.4821,-0.4813,-0.4808,-0.4797,-0.4796,-0.477,-0.4766,-0.4751,-0.4732,-0.4727,-0.4724,-0.4722,-0.4682,-0.4682,-0.4681,-0.4696,-0.4697,-0.4698,0,0,0,0,0,-0.4895,-0.4887,-0.4881,-0.4875,-0.4841,-0.482,-0.4816,-0.4799,-0.4797,-0.4792,-0.4776,-0.4767,-0.4727,-0.473,-0.4724,-0.4721,-0.4682,-0.4682,-0.4681,-0.4696,-0.4697,-0.4698,0,0,0,0,0,0,-0.4913,-0.4883,-0.4876,-0.486,-0.4843,-0.4817,-0.481,-0.4801,-0.4784,-0.4783,-0.4763,-0.4758,-0.4742,-0.4729,-0.4733,-0.4708,-0.4704,-0.4702,-0.4716,-0.4717,-0.4718,-0.4721,-0.472,0,0,0,0,0,-0.4915,-0.4901,-0.4876,-0.4863,-0.4855,-0.4834,-0.4824,-0.4813,-0.4795,-0.4788,-0.477,-0.4753,-0.4737,-0.4726,-0.471,-0.4694,-0.4689,-0.4689,-0.469,-0.4691,-0.469,-0.4681,-0.4681,-0.4681,-0.4681,-0.4681,0,0,-0.4919,-0.4901,-0.4893,-0.4866,-0.4852,-0.4837,-0.4828,-0.4813,-0.4803,-0.4785,-0.4768,-0.4754,-0.4734,-0.4717,-0.4709,-0.4706,-0.4688,-0.469,-0.4691,-0.469,-0.4681,-0.4681,-0.4681,-0.4681,-0.4681,-0.4681,0,0,-0.4918,-0.4903,-0.4891,-0.4877,-0.4856,-0.4842,-0.4839,-0.4815,-0.4806,-0.4788,-0.4774,-0.4761,-0.4734,-0.4719,-0.4708,-0.4703,-0.4694,-0.4699,-0.4702,-0.4694,-0.4694,-0.4694,-0.4692,-0.4692,-0.4698,-0.4698,-0.4698,0,-0.4926,-0.4904,-0.4886,-0.4872,-0.4861,-0.4845,-0.4833,-0.482,-0.4794,-0.4787,-0.4784,-0.475,-0.4734,-0.4714,-0.4713,-0.4705,-0.4701,-0.4701,-0.4695,-0.4695,-0.4695,-0.4693,-0.4692,-0.4698,-0.4698,-0.4698,-0.4698,0,-0.4914,-0.4899,-0.4892,-0.4867,-0.4855,-0.4842,-0.4823,-0.4813,-0.4803,-0.479,-0.4772,-0.4753,-0.4733,-0.4727,-0.4717,-0.4706,-0.4705,-0.4699,-0.4695,-0.4696,-0.4694,-0.4693,-0.47,-0.4699,-0.4699,-0.4699,0,0,-0.4923,-0.489,-0.4887,-0.4876,-0.4852,-0.484,-0.4826,-0.4806,-0.4798,-0.4781,-0.4769,-0.4747,-0.4741,-0.4729,-0.4717,-0.471,-0.4707,-0.4705,-0.4704,-0.4706,-0.4694,-0.4698,-0.4698,-0.4701,-0.4701,-0.47,-0.4695,0,-0.4919,-0.4894,-0.4878,-0.486,-0.4846,-0.4831,-0.4819,-0.4802,-0.479,-0.4776,-0.4762,-0.4746,-0.474,-0.4732,-0.4725,-0.4709,-0.4704,-0.4709,-0.4689,-0.4689,-0.4695,-0.4696,-0.4701,-0.4697,-0.4694,-0.4694,-0.4694,0,-0.4911,-0.4894,-0.4874,-0.4852,-0.4845,-0.4835,-0.4816,-0.4803,-0.4784,-0.4775,-0.4762,-0.475,-0.4735,-0.4732,-0.4712,-0.4715,-0.4706,-0.4698,-0.4697,-0.4694,-0.4691,-0.4694,-0.4696,-0.4695,-0.4693,-0.4693,-0.4693,0,-0.4919,-0.4892,-0.4877,-0.4868,-0.4841,-0.4834,-0.4823,-0.4804,-0.4793,-0.4777,-0.477,-0.4751,-0.4741,-0.4728,-0.4711,-0.4711,-0.4692,-0.4688,-0.4685,-0.4685,-0.4681,-0.4682,-0.4681,-0.4676,-0.4676,-0.4676,-0.4676,0,-0.4916,-0.4905,-0.488,-0.4871,-0.4857,-0.484,-0.4827,-0.4814,-0.4798,-0.4786,-0.4772,-0.4761,-0.474,-0.4726,-0.4713,-0.4698,-0.4694,-0.4686,-0.4683,-0.4687,-0.4688,-0.4681,-0.4681,-0.4676,-0.4676,-0.4676,-0.4676,0,-0.4924,-0.4907,-0.4889,-0.4865,-0.4859,-0.485,-0.483,-0.482,-0.4807,-0.4792,-0.4787,-0.4766,-0.4749,-0.4732,-0.4709,-0.47,-0.4686,-0.4681,-0.4692,-0.469,-0.4688,-0.4688,-0.4683,-0.4681,-0.4677,-0.4677,-0.4677,0,-0.4923,-0.4914,-0.4889,-0.488,-0.4869,-0.4854,-0.4844,-0.4826,-0.4815,-0.4794,-0.4787,-0.4769,-0.4754,-0.4728,-0.471,-0.4693,-0.4688,-0.4687,-0.4685,-0.469,-0.4688,-0.4688,-0.4687,-0.4688,-0.4688,-0.4688,-0.4688,0,-0.4923,-0.4916,-0.4901,-0.4883,-0.4871,-0.4856,-0.484,-0.4834,-0.4813,-0.4802,-0.4785,-0.4773,-0.475,-0.4733,-0.4713,-0.4701,-0.4691,-0.4689,-0.4687,-0.4692,-0.4698,-0.4695,-0.4694,-0.4689,-0.4689,-0.4689,-0.4689,-0.4689,-0.4926,-0.4917,-0.4899,-0.4883,-0.487,-0.4856,-0.4846,-0.4831,-0.4817,-0.4797,-0.4787,-0.477,-0.4752,-0.4725,-0.4713,-0.4699,-0.4697,-0.4694,-0.4693,-0.4693,-0.4694,-0.4701,-0.4696,-0.4696,-0.4696,-0.4696,-0.4696,0,-0.4926,-0.4913,-0.4899,-0.4878,-0.4866,-0.4858,-0.484,-0.483,-0.4816,-0.48,-0.4785,-0.4766,-0.4749,-0.473,-0.4712,-0.4705,-0.47,-0.4701,-0.4701,-0.4699,-0.4698,-0.4701,-0.4705,-0.4705,-0.4705,-0.4705,-0.4705,-0.4705,-0.4924,-0.4909,-0.4899,-0.4878,-0.4865,-0.4848,-0.4839,-0.4826,-0.4814,-0.4792,-0.4779,-0.4767,-0.475,-0.4731,-0.4715,-0.471,-0.4704,-0.4706,-0.47,-0.4699,-0.4699,-0.4698,-0.4701,-0.4705,-0.4705,-0.4702,-0.4702,-0.4702]},{"header":{"parameterUnit":"m.s-1","parameterCategory":1,"la1":30.2991,"la2":30.254,"lo1":-89.0895,"lo2":-89.0444,"dy":0.0017,"dx":0.0017,"nx":28,"ny":28,"refTime":"2024-05-25T09:00:00:Z","depth":0,"parameterNumber":3,"parameterNumberName":"V-component_of_WINDS"},"data":[0,0,0,0,0,0,0,0,0,0,0,0,0,0,0,0,0,0,0,0,0,0,0,0,0,0,0,0,0,0,0,0,0,0,0,0,0,0,0,0,0,0,0,0,0,0,0,0,0,0,0,0,0,0,0,0,0,0,5.2865,5.2865,0,5.2872,5.2872,5.2872,5.2794,5.2792,5.279,5.2788,5.2793,5.2795,5.2797,0,0,0,0,0,0,0,0,0,0,0,0,0,5.2783,5.2785,5.2865,5.2865,5.2865,5.2872,5.2872,5.2872,5.2794,5.2792,5.2789,5.2787,5.2792,5.2795,5.2798,0,0,0,0,0,0,0,0,0,0,0,0,0,5.2807,5.2786,5.2865,5.2827,5.2824,5.2872,5.2872,5.2872,5.2795,5.2792,5.2789,5.2786,5.2792,5.2795,5.2798,5.2882,0,0,5.2808,5.2809,0,0,0,0,0,0,0,0,5.2806,5.281,5.2833,5.283,5.2826,5.2829,5.2845,5.2875,5.2796,5.2806,5.2788,5.2784,5.2808,5.2809,5.2817,5.2882,5.2882,5.2808,5.281,5.2811,5.2812,0,0,0,0,0,0,0,5.2804,5.281,5.2868,5.2833,5.2829,5.281,5.2809,5.285,5.2825,5.2805,5.2799,5.2801,5.2805,5.2815,5.2817,5.2882,5.2808,5.2811,5.2813,5.2814,5.3015,5.3018,0,0,0,0,0,0,5.2808,5.2809,5.2867,5.2868,5.2808,5.2814,5.2813,5.2831,5.2824,5.282,5.2804,5.2798,5.2811,5.2813,5.2817,5.2914,5.2811,5.2814,5.2816,5.3012,5.3016,5.302,0,0,0,0,0,0,5.2807,5.2814,5.2867,5.2837,5.2842,5.2818,5.2839,5.2833,5.2842,5.2823,5.2818,5.2818,5.2808,5.2812,5.2866,5.2913,5.2816,5.2819,5.3008,5.3013,5.3018,5.311,0,0,0,0,0,0,5.2805,5.2814,5.2846,5.2838,5.2844,5.2917,5.2842,5.2836,5.2848,5.284,5.2835,5.2832,5.2806,5.2862,5.2869,5.2916,5.2821,5.3003,5.301,5.3016,5.3102,5.3117,5.313,0,0,0,0,0,5.2802,5.2871,5.2848,5.2856,5.2884,5.292,5.2923,5.2893,5.2853,5.2884,5.2872,5.2832,5.2907,5.2868,5.2876,5.2924,5.3,5.3008,5.3016,5.3096,5.3115,5.313,0,0,0,0,0,0,5.2885,5.287,5.2844,5.2913,5.2918,5.2907,5.2946,5.2913,5.293,5.2922,5.2883,5.2882,5.2943,5.2938,5.2895,5.3005,5.2946,5.2956,5.3005,5.3022,5.3036,5.3035,5.2824,0,0,0,0,0,5.2911,5.2943,5.2927,5.299,5.2994,5.297,5.2984,5.2961,5.2965,5.2967,5.2958,5.2963,5.2988,5.3005,5.3026,5.3102,5.3099,5.3139,5.3153,5.3164,5.3173,5.3212,5.3229,5.3045,5.3045,5.3045,0,0,5.2966,5.2962,5.2984,5.3006,5.3008,5.3041,5.2972,5.301,5.3034,5.2972,5.3022,5.3016,5.3019,5.3084,5.3112,5.3083,5.3223,5.3174,5.3183,5.3186,5.3222,5.3239,5.3255,5.305,5.3049,5.3048,0,0,5.3082,5.3083,5.3134,5.3137,5.3141,5.3124,5.3137,5.313,5.3124,5.3174,5.3129,5.3156,5.32,5.3203,5.3211,5.333,5.3293,5.3338,5.341,5.3449,5.3464,5.3476,5.3518,5.3534,5.3346,5.3347,5.3347,0,5.315,5.3198,5.3165,5.3206,5.3217,5.3163,5.3215,5.322,5.323,5.3239,5.3205,5.3259,5.3257,5.3322,5.3351,5.3359,5.3372,5.3338,5.3464,5.3477,5.3488,5.3528,5.3543,5.3352,5.3351,5.3351,5.335,0,5.3281,5.3315,5.3356,5.3368,5.3384,5.343,5.3403,5.3423,5.3398,5.3385,5.3437,5.3433,5.3452,5.3466,5.3442,5.3528,5.3509,5.3471,5.3412,5.3511,5.3548,5.3563,5.336,5.3358,5.3356,5.3355,0,0,5.3449,5.3442,5.3458,5.3463,5.3463,5.3488,5.3532,5.3552,5.3569,5.3578,5.3614,5.3652,5.3616,5.3625,5.3601,5.3635,5.3729,5.3592,5.3591,5.3617,5.3823,5.3852,5.387,5.3705,5.3707,5.371,5.3823,0,5.3562,5.3637,5.3609,5.3685,5.3716,5.3666,5.3703,5.3707,5.3696,5.372,5.3707,5.3735,5.3686,5.3691,5.3723,5.3711,5.3769,5.3702,5.3737,5.3738,5.3738,5.3889,5.392,5.4026,5.3837,5.3839,5.3841,0,5.3705,5.372,5.38,5.3794,5.3806,5.3841,5.3857,5.3881,5.3884,5.3873,5.3883,5.3852,5.3893,5.3835,5.3892,5.3847,5.3859,5.3855,5.3859,5.386,5.3796,5.3895,5.406,5.4076,5.3863,5.3861,5.386,0,5.3819,5.386,5.3913,5.3918,5.3913,5.3939,5.3938,5.3938,5.3952,5.3965,5.3974,5.3992,5.4002,5.4017,5.3991,5.3951,5.4052,5.3991,5.4044,5.4045,5.4067,5.4066,5.4236,5.4076,5.4076,5.4075,5.4075,0,5.3949,5.4,5.3964,5.3997,5.4052,5.4019,5.4074,5.4068,5.4068,5.4098,5.4055,5.4084,5.4048,5.4073,5.4053,5.4103,5.4108,5.4101,5.4095,5.4104,5.4106,5.4112,5.4104,5.4079,5.4079,5.4078,5.4077,0,5.4087,5.4065,5.4119,5.411,5.4109,5.415,5.4142,5.4172,5.4157,5.4196,5.4203,5.4181,5.4209,5.4184,5.4211,5.4197,5.4264,5.4247,5.4263,5.4258,5.4313,5.4308,5.4493,5.4515,5.4341,5.4342,5.4344,0,5.4171,5.4209,5.4204,5.4221,5.4223,5.4251,5.4265,5.4233,5.425,5.4256,5.4285,5.4309,5.4327,5.4373,5.4359,5.4379,5.4363,5.4426,5.4365,5.4374,5.4363,5.4362,5.4365,5.4438,5.444,5.4442,5.4443,0,5.4322,5.4309,5.4331,5.435,5.4368,5.4381,5.4391,5.4407,5.4374,5.4395,5.4423,5.4437,5.4464,5.4488,5.4504,5.4502,5.4468,5.4463,5.4476,5.4486,5.4494,5.4491,5.4297,5.4459,5.4457,5.4456,5.4455,5.4455,5.4435,5.4466,5.4468,5.4494,5.4498,5.4508,5.4535,5.4525,5.4547,5.4567,5.4547,5.4581,5.4583,5.46,5.4603,5.4629,5.4602,5.4621,5.4626,5.4632,5.464,5.449,5.4631,5.4631,5.4631,5.463,5.463,0,5.4584,5.4583,5.4607,5.4622,5.4642,5.4608,5.4617,5.4636,5.4667,5.4672,5.469,5.4722,5.4746,5.4734,5.4754,5.4777,5.4762,5.4784,5.4781,5.4782,5.4662,5.4649,5.4796,5.4796,5.4795,5.4795,5.4795,5.4795,5.4664,5.4715,5.4703,5.4756,5.4753,5.4787,5.4795,5.4804,5.4807,5.4845,5.4865,5.4857,5.4855,5.4875,5.4895,5.489,5.49,5.4927,5.4918,5.4806,5.479,5.4774,5.4761,5.493,5.493,5.5035,5.5036,5.5036]}]]